Wetterdaten: Mittwoch, 17.07.2013
Datum Zeit Temperatur Luftfeuchte Luftdruck Regen Wind Richtung Richtung Taupunkt Windchill Windben
17.07.2013 00:00 12,6 C 75 % 1024,4 hPa 0,0 l/m 0,5 km/h (0 Bft) O 90 8,3 C 12,0 C 2,9 km/h (1 Bft)
17.07.2013 00:05 12,8 C 74 % 1024,4 hPa 0,0 l/m 1,4 km/h (1 Bft) O-SO 112 8,3 C 12,3 C 2,4 km/h (1 Bft)
17.07.2013 00:10 12,8 C 74 % 1024,4 hPa 0,0 l/m 2,3 km/h (1 Bft) O 90 8,3 C 12,6 C 3,4 km/h (1 Bft)
17.07.2013 00:15 12,9 C 74 % 1024,4 hPa 0,0 l/m 2,4 km/h (1 Bft) O-SO 112 8,4 C 12,9 C 4,8 km/h (1 Bft)
17.07.2013 00:20 12,8 C 74 % 1024,6 hPa 0,0 l/m 1,9 km/h (1 Bft) O 90 8,3 C 13,0 C 2,7 km/h (1 Bft)
17.07.2013 00:25 12,8 C 74 % 1024,6 hPa 0,0 l/m 1,6 km/h (1 Bft) O-NO 67 8,3 C 12,9 C 2,3 km/h (1 Bft)
17.07.2013 00:30 12,6 C 74 % 1024,6 hPa 0,0 l/m 1,3 km/h (1 Bft) O-SO 112 8,1 C 12,8 C 0,0 km/h (0 Bft)
17.07.2013 00:35 12,1 C 74 % 1024,6 hPa 0,0 l/m 0,3 km/h (0 Bft) N-NO 22 7,6 C 12,3 C 0,0 km/h (0 Bft)
17.07.2013 00:40 11,8 C 74 % 1024,4 hPa 0,0 l/m 0,0 km/h (0 Bft) NO 45 7,3 C 12,0 C 0,0 km/h (0 Bft)
17.07.2013 00:45 11,7 C 75 % 1024,4 hPa 0,0 l/m 0,0 km/h (0 Bft) NO 45 7,4 C 11,6 C 0,0 km/h (0 Bft)
17.07.2013 00:50 11,6 C 76 % 1024,4 hPa 0,0 l/m 0,0 km/h (0 Bft) NO 45 7,5 C 11,4 C 0,0 km/h (0 Bft)
17.07.2013 00:55 11,5 C 76 % 1024,4 hPa 0,0 l/m 0,0 km/h (0 Bft) NO 45 7,4 C 11,1 C 0,0 km/h (0 Bft)
17.07.2013 01:00 11,4 C 76 % 1024,4 hPa 0,0 l/m 0,0 km/h (0 Bft) NO 45 7,3 C 11,0 C 0,0 km/h (0 Bft)
17.07.2013 01:05 11,3 C 77 % 1024,4 hPa 0,0 l/m 0,0 km/h (0 Bft) NO 45 7,4 C 10,9 C 0,0 km/h (0 Bft)
17.07.2013 01:10 11,2 C 77 % 1024,4 hPa 0,0 l/m 0,0 km/h (0 Bft) N-NO 22 7,3 C 10,8 C 0,0 km/h (0 Bft)
17.07.2013 01:15 11,1 C 77 % 1024,4 hPa 0,0 l/m 0,0 km/h (0 Bft) N-NO 22 7,2 C 10,6 C 0,0 km/h (0 Bft)
17.07.2013 01:20 11,0 C 77 % 1024,5 hPa 0,0 l/m 0,0 km/h (0 Bft) O 90 7,1 C 10,5 C 0,0 km/h (0 Bft)
17.07.2013 01:25 11,1 C 79 % 1024,5 hPa 0,0 l/m 0,2 km/h (0 Bft) N-NO 22 7,6 C 10,3 C 0,0 km/h (0 Bft)
17.07.2013 01:30 10,8 C 78 % 1024,5 hPa 0,0 l/m 0,2 km/h (0 Bft) NO 45 7,1 C 10,3 C 0,0 km/h (0 Bft)
17.07.2013 01:35 11,0 C 79 % 1024,5 hPa 0,0 l/m 0,2 km/h (0 Bft) O-NO 67 7,5 C 10,3 C 0,0 km/h (0 Bft)
17.07.2013 01:40 11,1 C 79 % 1024,5 hPa 0,0 l/m 0,2 km/h (0 Bft) NO 45 7,6 C 10,3 C 0,0 km/h (0 Bft)
17.07.2013 01:45 11,3 C 79 % 1024,5 hPa 0,0 l/m 0,3 km/h (0 Bft) O-SO 112 7,8 C 10,3 C 0,0 km/h (0 Bft)
17.07.2013 01:50 11,2 C 79 % 1024,5 hPa 0,0 l/m 0,8 km/h (0 Bft) O-NO 67 7,7 C 10,3 C 2,4 km/h (1 Bft)
17.07.2013 01:55 11,0 C 79 % 1024,5 hPa 0,0 l/m 0,8 km/h (0 Bft) O-SO 112 7,5 C 10,2 C 0,0 km/h (0 Bft)
17.07.2013 02:00 10,7 C 79 % 1024,6 hPa 0,0 l/m 0,6 km/h (0 Bft) O 90 7,2 C 10,1 C 0,0 km/h (0 Bft)
17.07.2013 02:05 10,4 C 79 % 1024,6 hPa 0,0 l/m 0,0 km/h (0 Bft) O 90 6,9 C 9,9 C 0,0 km/h (0 Bft)
17.07.2013 02:10 10,2 C 79 % 1024,6 hPa 0,0 l/m 0,0 km/h (0 Bft) SO 135 6,7 C 9,7 C 0,0 km/h (0 Bft)
17.07.2013 02:15 10,2 C 81 % 1024,6 hPa 0,0 l/m 0,0 km/h (0 Bft) NO 45 7,1 C 9,5 C 0,0 km/h (0 Bft)
17.07.2013 02:20 10,0 C 81 % 1024,6 hPa 0,0 l/m 0,0 km/h (0 Bft) N-NO 22 6,9 C 9,4 C 0,0 km/h (0 Bft)
17.07.2013 02:25 10,0 C 81 % 1024,6 hPa 0,0 l/m 0,0 km/h (0 Bft) NO 45 6,9 C 9,3 C 0,0 km/h (0 Bft)
17.07.2013 02:30 10,5 C 82 % 1024,6 hPa 0,0 l/m 0,0 km/h (0 Bft) NO 45 7,6 C 9,3 C 0,0 km/h (0 Bft)
17.07.2013 02:35 10,7 C 82 % 1024,6 hPa 0,0 l/m 0,3 km/h (0 Bft) O-NO 67 7,8 C 9,3 C 2,3 km/h (1 Bft)
17.07.2013 02:40 11,0 C 82 % 1024,3 hPa 0,0 l/m 1,1 km/h (1 Bft) O-SO 112 8,0 C 9,5 C 1,8 km/h (1 Bft)
17.07.2013 02:45 11,0 C 82 % 1024,3 hPa 0,0 l/m 1,6 km/h (1 Bft) O 90 8,0 C 9,7 C 2,6 km/h (1 Bft)
17.07.2013 02:50 11,1 C 82 % 1024,3 hPa 0,0 l/m 1,6 km/h (1 Bft) O-SO 112 8,1 C 9,8 C 3,7 km/h (1 Bft)
17.07.2013 02:55 11,2 C 81 % 1024,3 hPa 0,0 l/m 2,6 km/h (1 Bft) O 90 8,1 C 10,1 C 2,7 km/h (1 Bft)
17.07.2013 03:00 11,2 C 81 % 1024,2 hPa 0,0 l/m 2,9 km/h (1 Bft) O 90 8,1 C 10,3 C 3,5 km/h (1 Bft)
17.07.2013 03:05 11,1 C 81 % 1024,2 hPa 0,0 l/m 2,1 km/h (1 Bft) NO 45 8,0 C 10,4 C 0,0 km/h (0 Bft)
17.07.2013 03:10 10,7 C 80 % 1024,2 hPa 0,0 l/m 1,1 km/h (1 Bft) O 90 7,4 C 10,2 C 0,0 km/h (0 Bft)
17.07.2013 03:15 10,8 C 81 % 1024,2 hPa 0,0 l/m 0,3 km/h (0 Bft) O-SO 112 7,7 C 9,9 C 2,1 km/h (1 Bft)
17.07.2013 03:20 10,9 C 81 % 1024,2 hPa 0,0 l/m 1,0 km/h (0 Bft) O-SO 112 7,8 C 9,9 C 0,0 km/h (0 Bft)
17.07.2013 03:25 10,6 C 81 % 1024,2 hPa 0,0 l/m 0,8 km/h (0 Bft) N-NO 22 7,5 C 9,9 C 0,0 km/h (0 Bft)
17.07.2013 03:30 10,3 C 80 % 1024,2 hPa 0,0 l/m 0,2 km/h (0 Bft) N-NO 22 7,0 C 9,7 C 0,0 km/h (0 Bft)
17.07.2013 03:35 10,3 C 81 % 1024,2 hPa 0,0 l/m 0,2 km/h (0 Bft) N-NW 337 7,2 C 9,5 C 0,0 km/h (0 Bft)
17.07.2013 03:40 10,2 C 81 % 1024,2 hPa 0,0 l/m 0,2 km/h (0 Bft) O-NO 67 7,1 C 9,5 C 0,0 km/h (0 Bft)
17.07.2013 03:45 10,2 C 82 % 1024,2 hPa 0,0 l/m 0,0 km/h (0 Bft) NO 45 7,3 C 9,4 C 0,0 km/h (0 Bft)
17.07.2013 03:50 10,1 C 82 % 1024,2 hPa 0,0 l/m 0,0 km/h (0 Bft) N-NO 22 7,2 C 9,3 C 0,0 km/h (0 Bft)
17.07.2013 03:55 9,9 C 82 % 1024,2 hPa 0,0 l/m 0,0 km/h (0 Bft) NO 45 7,0 C 9,2 C 0,0 km/h (0 Bft)
17.07.2013 04:00 9,8 C 82 % 1023,6 hPa 0,0 l/m 0,0 km/h (0 Bft) N-NO 22 6,9 C 9,1 C 0,0 km/h (0 Bft)
17.07.2013 04:05 9,6 C 82 % 1023,6 hPa 0,0 l/m 0,0 km/h (0 Bft) N-NO 22 6,7 C 9,0 C 0,0 km/h (0 Bft)
17.07.2013 04:10 9,4 C 82 % 1023,6 hPa 0,0 l/m 0,0 km/h (0 Bft) O-NO 67 6,5 C 9,0 C 0,0 km/h (0 Bft)
17.07.2013 04:15 9,8 C 86 % 1023,6 hPa 0,0 l/m 0,3 km/h (0 Bft) N 360 7,6 C 8,9 C 1,6 km/h (1 Bft)
17.07.2013 04:20 9,7 C 86 % 1024,2 hPa 0,0 l/m 0,3 km/h (0 Bft) NW 315 7,5 C 9,0 C 0,0 km/h (0 Bft)
17.07.2013 04:25 9,5 C 85 % 1024,2 hPa 0,0 l/m 0,0 km/h (0 Bft) O-NO 67 7,1 C 8,9 C 0,0 km/h (0 Bft)
17.07.2013 04:30 9,3 C 85 % 1024,2 hPa 0,0 l/m 0,0 km/h (0 Bft) NO 45 6,9 C 8,8 C 0,0 km/h (0 Bft)
17.07.2013 04:35 9,1 C 85 % 1024,2 hPa 0,0 l/m 0,0 km/h (0 Bft) N-NO 22 6,7 C 8,6 C 0,0 km/h (0 Bft)
17.07.2013 04:40 9,3 C 85 % 1024,2 hPa 0,0 l/m 0,0 km/h (0 Bft) N-NO 22 6,9 C 8,6 C 0,0 km/h (0 Bft)
17.07.2013 04:45 9,3 C 86 % 1024,2 hPa 0,0 l/m 0,3 km/h (0 Bft) N-NO 22 7,1 C 8,7 C 0,0 km/h (0 Bft)
17.07.2013 04:50 9,4 C 86 % 1024,2 hPa 0,0 l/m 0,2 km/h (0 Bft) N-NO 22 7,2 C 8,8 C 0,0 km/h (0 Bft)
17.07.2013 04:55 9,2 C 86 % 1024,2 hPa 0,0 l/m 0,0 km/h (0 Bft) NO 45 7,0 C 8,8 C 0,0 km/h (0 Bft)
17.07.2013 05:00 9,1 C 85 % 1024,1 hPa 0,0 l/m 0,0 km/h (0 Bft) N 360 6,7 C 8,8 C 0,0 km/h (0 Bft)
17.07.2013 05:05 9,1 C 85 % 1024,1 hPa 0,0 l/m 0,0 km/h (0 Bft) NO 45 6,7 C 8,6 C 0,0 km/h (0 Bft)
17.07.2013 05:10 9,0 C 85 % 1024,1 hPa 0,0 l/m 0,0 km/h (0 Bft) N 360 6,6 C 8,6 C 0,0 km/h (0 Bft)
17.07.2013 05:15 8,9 C 86 % 1024,1 hPa 0,0 l/m 0,0 km/h (0 Bft) N 360 6,7 C 8,4 C 0,0 km/h (0 Bft)
17.07.2013 05:20 8,9 C 86 % 1024,2 hPa 0,0 l/m 0,0 km/h (0 Bft) O-NO 67 6,7 C 8,3 C 0,0 km/h (0 Bft)
17.07.2013 05:25 8,8 C 86 % 1024,2 hPa 0,0 l/m 0,0 km/h (0 Bft) NO 45 6,6 C 8,3 C 0,0 km/h (0 Bft)
17.07.2013 05:30 8,9 C 86 % 1024,2 hPa 0,0 l/m 0,0 km/h (0 Bft) N-NO 22 6,7 C 8,2 C 0,0 km/h (0 Bft)
17.07.2013 05:35 8,9 C 87 % 1024,2 hPa 0,0 l/m 0,0 km/h (0 Bft) NO 45 6,9 C 8,3 C 0,0 km/h (0 Bft)
17.07.2013 05:40 9,0 C 87 % 1024,0 hPa 0,0 l/m 0,0 km/h (0 Bft) N 360 7,0 C 8,4 C 0,0 km/h (0 Bft)
17.07.2013 05:45 9,1 C 87 % 1024,0 hPa 0,0 l/m 0,2 km/h (0 Bft) NO 45 7,1 C 8,6 C 0,0 km/h (0 Bft)
17.07.2013 05:50 9,1 C 87 % 1024,0 hPa 0,0 l/m 0,0 km/h (0 Bft) N-NO 22 7,1 C 8,5 C 0,0 km/h (0 Bft)
17.07.2013 05:55 9,0 C 87 % 1024,0 hPa 0,0 l/m 0,0 km/h (0 Bft) W-NW 292 7,0 C 8,6 C 0,0 km/h (0 Bft)
17.07.2013 06:00 9,1 C 87 % 1024,3 hPa 0,0 l/m 0,0 km/h (0 Bft) N-NO 22 7,1 C 8,8 C 0,0 km/h (0 Bft)
17.07.2013 06:05 9,3 C 87 % 1024,3 hPa 0,0 l/m 0,0 km/h (0 Bft) O-SO 112 7,2 C 9,5 C 0,0 km/h (0 Bft)
17.07.2013 06:10 9,5 C 87 % 1024,3 hPa 0,0 l/m 0,0 km/h (0 Bft) N-NO 22 7,4 C 10,1 C 0,0 km/h (0 Bft)
17.07.2013 06:15 10,4 C 86 % 1024,3 hPa 0,0 l/m 0,0 km/h (0 Bft) N-NO 22 8,2 C 11,0 C 0,0 km/h (0 Bft)
17.07.2013 06:20 11,5 C 86 % 1024,3 hPa 0,0 l/m 0,0 km/h (0 Bft) N-NO 22 9,2 C 11,7 C 0,0 km/h (0 Bft)
17.07.2013 06:25 12,8 C 84 % 1024,3 hPa 0,0 l/m 0,0 km/h (0 Bft) W-NW 292 10,2 C 12,1 C 0,0 km/h (0 Bft)
17.07.2013 06:30 13,2 C 82 % 1024,3 hPa 0,0 l/m 0,0 km/h (0 Bft) N 360 10,2 C 11,9 C 0,0 km/h (0 Bft)
17.07.2013 06:35 12,3 C 79 % 1024,3 hPa 0,0 l/m 0,0 km/h (0 Bft) NO 45 8,8 C 12,8 C 0,0 km/h (0 Bft)
17.07.2013 06:40 12,2 C 80 % 1024,6 hPa 0,0 l/m 0,0 km/h (0 Bft) N 360 8,9 C 13,6 C 0,0 km/h (0 Bft)
17.07.2013 06:45 14,3 C 79 % 1024,6 hPa 0,0 l/m 0,0 km/h (0 Bft) W-NW 292 10,7 C 14,8 C 0,0 km/h (0 Bft)
17.07.2013 06:50 15,6 C 76 % 1024,6 hPa 0,0 l/m 0,0 km/h (0 Bft) NW 315 11,4 C 15,6 C 0,0 km/h (0 Bft)
17.07.2013 06:55 15,8 C 70 % 1024,6 hPa 0,0 l/m 0,0 km/h (0 Bft) N-NO 22 10,3 C 16,5 C 0,0 km/h (0 Bft)
17.07.2013 07:00 16,5 C 69 % 1024,6 hPa 0,0 l/m 0,0 km/h (0 Bft) SW 225 10,8 C 17,0 C 0,0 km/h (0 Bft)
17.07.2013 07:05 16,9 C 66 % 1024,6 hPa 0,0 l/m 0,0 km/h (0 Bft) N 360 10,5 C 17,7 C 0,0 km/h (0 Bft)
17.07.2013 07:10 17,9 C 66 % 1024,6 hPa 0,0 l/m 0,0 km/h (0 Bft) NO 45 11,5 C 18,3 C 0,0 km/h (0 Bft)
17.07.2013 07:15 18,1 C 62 % 1024,6 hPa 0,0 l/m 0,0 km/h (0 Bft) NO 45 10,7 C 19,4 C 0,0 km/h (0 Bft)
17.07.2013 07:20 18,9 C 62 % 1024,5 hPa 0,0 l/m 0,0 km/h (0 Bft) NO 45 11,5 C 20,0 C 0,0 km/h (0 Bft)
17.07.2013 07:25 19,4 C 59 % 1024,5 hPa 0,0 l/m 0,0 km/h (0 Bft) W-SW 247 11,2 C 20,6 C 0,0 km/h (0 Bft)
17.07.2013 07:30 19,3 C 57 % 1024,5 hPa 0,0 l/m 0,0 km/h (0 Bft) W 270 10,6 C 21,0 C 0,0 km/h (0 Bft)
17.07.2013 07:35 19,9 C 58 % 1024,5 hPa 0,0 l/m 0,0 km/h (0 Bft) N 360 11,4 C 21,5 C 0,0 km/h (0 Bft)
17.07.2013 07:40 21,1 C 57 % 1024,6 hPa 0,0 l/m 0,0 km/h (0 Bft) W-NW 292 12,2 C 21,8 C 0,0 km/h (0 Bft)
17.07.2013 07:45 21,5 C 57 % 1024,6 hPa 0,0 l/m 0,0 km/h (0 Bft) O-NO 67 12,6 C 22,3 C 0,0 km/h (0 Bft)
17.07.2013 07:50 21,7 C 57 % 1024,6 hPa 0,0 l/m 0,0 km/h (0 Bft) NO 45 12,8 C 23,1 C 0,0 km/h (0 Bft)
17.07.2013 07:55 21,4 C 55 % 1024,6 hPa 0,0 l/m 0,0 km/h (0 Bft) N-NO 22 12,0 C 23,5 C 0,0 km/h (0 Bft)
17.07.2013 08:00 21,8 C 56 % 1024,5 hPa 0,0 l/m 0,0 km/h (0 Bft) O 90 12,6 C 23,6 C 0,0 km/h (0 Bft)
17.07.2013 08:05 22,8 C 54 % 1024,5 hPa 0,0 l/m 0,0 km/h (0 Bft) N-NO 22 13,0 C 24,0 C 0,0 km/h (0 Bft)
17.07.2013 08:10 23,2 C 55 % 1024,5 hPa 0,0 l/m 0,0 km/h (0 Bft) N-NO 22 13,6 C 24,5 C 0,0 km/h (0 Bft)
17.07.2013 08:15 24,0 C 51 % 1024,5 hPa 0,0 l/m 0,0 km/h (0 Bft) N-NW 337 13,2 C 25,4 C 0,0 km/h (0 Bft)
17.07.2013 08:20 23,3 C 50 % 1024,4 hPa 0,0 l/m 0,0 km/h (0 Bft) N-NW 337 12,3 C 25,6 C 0,0 km/h (0 Bft)
17.07.2013 08:25 23,8 C 51 % 1024,4 hPa 0,0 l/m 0,0 km/h (0 Bft) S-SW 202 13,0 C 26,1 C 0,0 km/h (0 Bft)
17.07.2013 08:30 24,4 C 52 % 1024,4 hPa 0,0 l/m 0,0 km/h (0 Bft) N-NO 22 13,9 C 26,5 C 0,0 km/h (0 Bft)
17.07.2013 08:35 24,6 C 50 % 1024,4 hPa 0,0 l/m 0,0 km/h (0 Bft) N-NO 22 13,5 C 27,0 C 0,0 km/h (0 Bft)
17.07.2013 08:40 24,6 C 49 % 1023,9 hPa 0,0 l/m 0,0 km/h (0 Bft) N-NO 22 13,2 C 27,0 C 0,0 km/h (0 Bft)
17.07.2013 08:45 25,6 C 49 % 1023,9 hPa 0,0 l/m 0,2 km/h (0 Bft) W 270 14,1 C 27,3 C 0,0 km/h (0 Bft)
17.07.2013 08:50 26,1 C 48 % 1023,9 hPa 0,0 l/m 0,2 km/h (0 Bft) SW 225 14,2 C 27,6 C 0,0 km/h (0 Bft)
17.07.2013 08:55 26,6 C 46 % 1023,9 hPa 0,0 l/m 0,5 km/h (0 Bft) W-NW 292 14,0 C 27,6 C 3,1 km/h (1 Bft)
17.07.2013 09:00 25,8 C 45 % 1023,2 hPa 0,0 l/m 1,0 km/h (0 Bft) N-NO 22 13,0 C 27,2 C 1,6 km/h (1 Bft)
17.07.2013 09:05 26,4 C 42 % 1023,2 hPa 0,0 l/m 1,0 km/h (0 Bft) W-SW 247 12,4 C 27,1 C 0,0 km/h (0 Bft)
17.07.2013 09:10 26,9 C 40 % 1023,2 hPa 0,0 l/m 0,6 km/h (0 Bft) W-NW 292 12,1 C 27,2 C 0,0 km/h (0 Bft)
17.07.2013 09:15 26,9 C 40 % 1023,2 hPa 0,0 l/m 0,3 km/h (0 Bft) O 90 12,1 C 27,9 C 2,3 km/h (1 Bft)
17.07.2013 09:20 26,8 C 40 % 1023,4 hPa 0,0 l/m 0,3 km/h (0 Bft) NO 45 12,1 C 28,2 C 0,0 km/h (0 Bft)
17.07.2013 09:25 26,3 C 38 % 1023,4 hPa 0,0 l/m 1,0 km/h (0 Bft) NO 45 10,8 C 28,3 C 2,6 km/h (1 Bft)
17.07.2013 09:30 26,1 C 38 % 1023,4 hPa 0,0 l/m 1,1 km/h (1 Bft) N 360 10,7 C 28,3 C 2,6 km/h (1 Bft)
17.07.2013 09:35 26,6 C 39 % 1023,4 hPa 0,0 l/m 1,0 km/h (0 Bft) W-NW 292 11,5 C 28,4 C 3,1 km/h (1 Bft)
17.07.2013 09:40 27,4 C 38 % 1024,0 hPa 0,0 l/m 0,8 km/h (0 Bft) W-NW 292 11,8 C 28,3 C 1,8 km/h (1 Bft)
17.07.2013 09:45 27,6 C 36 % 1024,0 hPa 0,0 l/m 1,3 km/h (1 Bft) W 270 11,2 C 28,6 C 0,0 km/h (0 Bft)
17.07.2013 09:50 27,0 C 39 % 1024,0 hPa 0,0 l/m 1,0 km/h (0 Bft) N-NW 337 11,8 C 28,8 C 2,3 km/h (1 Bft)
17.07.2013 09:55 26,4 C 39 % 1024,0 hPa 0,0 l/m 1,3 km/h (1 Bft) W-NW 292 11,3 C 28,7 C 5,8 km/h (2 Bft)
17.07.2013 10:00 26,8 C 38 % 1023,8 hPa 0,0 l/m 2,6 km/h (1 Bft) N-NW 337 11,3 C 28,1 C 2,6 km/h (1 Bft)
17.07.2013 10:05 26,9 C 38 % 1023,8 hPa 0,0 l/m 3,2 km/h (1 Bft) N 360 11,4 C 27,7 C 6,8 km/h (2 Bft)
17.07.2013 10:10 26,9 C 39 % 1023,8 hPa 0,0 l/m 2,7 km/h (1 Bft) W 270 11,8 C 27,8 C 3,7 km/h (1 Bft)
17.07.2013 10:15 26,3 C 39 % 1023,8 hPa 0,0 l/m 2,7 km/h (1 Bft) N 360 11,2 C 27,9 C 2,7 km/h (1 Bft)
17.07.2013 10:20 25,7 C 40 % 1023,5 hPa 0,0 l/m 2,6 km/h (1 Bft) NO 45 11,1 C 28,0 C 1,9 km/h (1 Bft)
17.07.2013 10:25 25,8 C 38 % 1023,5 hPa 0,0 l/m 2,1 km/h (1 Bft) N-NO 22 10,4 C 28,3 C 2,1 km/h (1 Bft)
17.07.2013 10:30 26,1 C 39 % 1023,5 hPa 0,0 l/m 1,9 km/h (1 Bft) NW 315 11,0 C 28,5 C 0,0 km/h (0 Bft)
17.07.2013 10:35 27,5 C 37 % 1023,5 hPa 0,0 l/m 1,9 km/h (1 Bft) W-NW 292 11,5 C 29,0 C 7,7 km/h (2 Bft)
17.07.2013 10:40 26,8 C 38 % 1022,9 hPa 0,0 l/m 3,1 km/h (1 Bft) W 270 11,3 C 28,3 C 4,7 km/h (1 Bft)
17.07.2013 10:45 26,1 C 36 % 1022,9 hPa 0,0 l/m 4,3 km/h (1 Bft) W 270 9,8 C 27,7 C 9,7 km/h (2 Bft)
17.07.2013 10:50 26,5 C 37 % 1022,9 hPa 0,0 l/m 3,7 km/h (1 Bft) W-NW 292 10,6 C 27,5 C 4,2 km/h (1 Bft)
17.07.2013 10:55 26,6 C 36 % 1022,9 hPa 0,0 l/m 3,7 km/h (1 Bft) NW 315 10,3 C 27,5 C 4,3 km/h (1 Bft)
17.07.2013 11:00 26,9 C 36 % 1022,4 hPa 0,0 l/m 3,7 km/h (1 Bft) W-SW 247 10,6 C 27,5 C 3,9 km/h (1 Bft)
17.07.2013 11:05 26,9 C 36 % 1022,4 hPa 0,0 l/m 2,9 km/h (1 Bft) W-NW 292 10,6 C 28,0 C 5,3 km/h (1 Bft)
17.07.2013 11:10 26,7 C 36 % 1022,4 hPa 0,0 l/m 3,5 km/h (1 Bft) N 360 10,4 C 27,8 C 6,3 km/h (2 Bft)
17.07.2013 11:15 26,1 C 35 % 1022,4 hPa 0,0 l/m 4,7 km/h (1 Bft) O-NO 67 9,4 C 27,4 C 11,1 km/h (2 Bft)
17.07.2013 11:20 26,3 C 36 % 1021,8 hPa 0,0 l/m 4,3 km/h (1 Bft) N-NO 22 10,0 C 27,3 C 3,4 km/h (1 Bft)
17.07.2013 11:25 26,0 C 34 % 1021,8 hPa 0,0 l/m 4,5 km/h (1 Bft) W-NW 292 8,9 C 27,2 C 3,2 km/h (1 Bft)
17.07.2013 11:30 26,8 C 35 % 1021,8 hPa 0,0 l/m 3,9 km/h (1 Bft) W 270 10,0 C 27,4 C 4,2 km/h (1 Bft)
17.07.2013 11:35 27,2 C 34 % 1021,8 hPa 0,0 l/m 3,4 km/h (1 Bft) N 360 10,0 C 27,7 C 3,5 km/h (1 Bft)
17.07.2013 11:40 27,2 C 34 % 1021,2 hPa 0,0 l/m 3,2 km/h (1 Bft) SW 225 10,0 C 27,9 C 2,3 km/h (1 Bft)
17.07.2013 11:45 27,7 C 33 % 1021,2 hPa 0,0 l/m 3,1 km/h (1 Bft) N-NO 22 9,9 C 28,1 C 6,6 km/h (2 Bft)
17.07.2013 11:50 27,4 C 33 % 1021,2 hPa 0,0 l/m 3,1 km/h (1 Bft) N-NW 337 9,7 C 28,3 C 3,4 km/h (1 Bft)
17.07.2013 11:55 26,9 C 33 % 1021,2 hPa 0,0 l/m 3,4 km/h (1 Bft) NO 45 9,3 C 28,4 C 6,4 km/h (2 Bft)
17.07.2013 12:00 26,9 C 32 % 1020,7 hPa 0,0 l/m 3,7 km/h (1 Bft) N 360 8,8 C 28,1 C 5,1 km/h (1 Bft)
17.07.2013 12:05 27,5 C 33 % 1020,7 hPa 0,0 l/m 4,0 km/h (1 Bft) W-NW 292 9,8 C 27,9 C 2,7 km/h (1 Bft)
17.07.2013 12:10 27,4 C 33 % 1020,7 hPa 0,0 l/m 3,5 km/h (1 Bft) N-NW 337 9,7 C 28,2 C 5,6 km/h (1 Bft)
17.07.2013 12:15 27,2 C 33 % 1020,7 hPa 0,0 l/m 3,4 km/h (1 Bft) S 180 9,5 C 28,3 C 4,2 km/h (1 Bft)
17.07.2013 12:20 27,6 C 32 % 1020,2 hPa 0,0 l/m 4,0 km/h (1 Bft) S-SW 202 9,4 C 28,2 C 3,7 km/h (1 Bft)
17.07.2013 12:25 27,5 C 32 % 1020,2 hPa 0,0 l/m 3,9 km/h (1 Bft) N-NW 337 9,3 C 28,3 C 3,4 km/h (1 Bft)
17.07.2013 12:30 27,8 C 32 % 1020,2 hPa 0,0 l/m 3,2 km/h (1 Bft) W-SW 247 9,6 C 28,3 C 3,7 km/h (1 Bft)
17.07.2013 12:35 27,9 C 32 % 1020,2 hPa 0,0 l/m 2,4 km/h (1 Bft) W-NW 292 9,7 C 28,8 C 3,1 km/h (1 Bft)
17.07.2013 12:40 28,1 C 31 % 1019,7 hPa 0,0 l/m 2,7 km/h (1 Bft) NW 315 9,4 C 28,8 C 3,5 km/h (1 Bft)
17.07.2013 12:45 27,7 C 30 % 1019,7 hPa 0,0 l/m 2,7 km/h (1 Bft) S 180 8,5 C 28,9 C 1,6 km/h (1 Bft)
17.07.2013 12:50 28,1 C 31 % 1019,7 hPa 0,0 l/m 1,9 km/h (1 Bft) S-SW 202 9,4 C 29,3 C 0,0 km/h (0 Bft)
17.07.2013 12:55 27,5 C 31 % 1019,7 hPa 0,0 l/m 2,7 km/h (1 Bft) S-SW 202 8,8 C 29,1 C 2,9 km/h (1 Bft)
17.07.2013 13:00 27,5 C 32 % 1019,2 hPa 0,0 l/m 3,1 km/h (1 Bft) N-NW 337 9,3 C 29,2 C 4,3 km/h (1 Bft)
17.07.2013 13:05 27,8 C 32 % 1019,2 hPa 0,0 l/m 2,7 km/h (1 Bft) S 180 9,6 C 29,4 C 4,8 km/h (1 Bft)
17.07.2013 13:10 27,5 C 32 % 1019,2 hPa 0,0 l/m 3,5 km/h (1 Bft) S 180 9,3 C 29,2 C 4,8 km/h (1 Bft)
17.07.2013 13:15 27,5 C 32 % 1019,2 hPa 0,0 l/m 4,2 km/h (1 Bft) W-SW 247 9,3 C 28,9 C 3,2 km/h (1 Bft)
17.07.2013 13:20 27,9 C 32 % 1018,8 hPa 0,0 l/m 4,0 km/h (1 Bft) NW 315 9,7 C 29,0 C 4,2 km/h (1 Bft)
17.07.2013 13:25 27,4 C 30 % 1018,8 hPa 0,0 l/m 4,7 km/h (1 Bft) N 360 8,3 C 28,7 C 3,9 km/h (1 Bft)
17.07.2013 13:30 26,6 C 31 % 1018,8 hPa 0,0 l/m 4,5 km/h (1 Bft) W 270 8,1 C 28,6 C 4,8 km/h (1 Bft)
17.07.2013 13:35 27,5 C 31 % 1018,8 hPa 0,0 l/m 2,9 km/h (1 Bft) W-NW 292 8,8 C 29,1 C 3,2 km/h (1 Bft)
17.07.2013 13:40 27,7 C 33 % 1018,5 hPa 0,0 l/m 2,9 km/h (1 Bft) W-NW 292 9,9 C 29,6 C 4,2 km/h (1 Bft)
17.07.2013 13:45 27,6 C 31 % 1018,5 hPa 0,0 l/m 3,5 km/h (1 Bft) W-NW 292 8,9 C 29,3 C 2,7 km/h (1 Bft)
17.07.2013 13:50 27,9 C 33 % 1018,5 hPa 0,0 l/m 3,9 km/h (1 Bft) S-SW 202 10,1 C 29,5 C 4,0 km/h (1 Bft)
17.07.2013 13:55 27,3 C 30 % 1018,5 hPa 0,0 l/m 3,1 km/h (1 Bft) S 180 8,2 C 29,3 C 0,0 km/h (0 Bft)
17.07.2013 14:00 27,8 C 32 % 1018,2 hPa 0,0 l/m 4,0 km/h (1 Bft) S-SW 202 9,6 C 29,5 C 4,5 km/h (1 Bft)
17.07.2013 14:05 27,9 C 31 % 1018,2 hPa 0,0 l/m 4,2 km/h (1 Bft) S 180 9,2 C 29,3 C 12,4 km/h (3 Bft)
17.07.2013 14:10 27,9 C 31 % 1018,2 hPa 0,0 l/m 4,8 km/h (1 Bft) S-SW 202 9,2 C 29,2 C 7,6 km/h (2 Bft)
17.07.2013 14:15 28,0 C 30 % 1018,2 hPa 0,0 l/m 5,3 km/h (1 Bft) S-SO 157 8,8 C 29,1 C 10,1 km/h (2 Bft)
17.07.2013 14:20 28,2 C 30 % 1017,9 hPa 0,0 l/m 5,3 km/h (1 Bft) W 270 9,0 C 29,0 C 8,0 km/h (2 Bft)
17.07.2013 14:25 27,9 C 31 % 1017,9 hPa 0,0 l/m 5,6 km/h (1 Bft) S-SO 157 9,2 C 28,6 C 6,3 km/h (2 Bft)
17.07.2013 14:30 27,7 C 31 % 1017,9 hPa 0,0 l/m 5,0 km/h (1 Bft) S-SW 202 9,0 C 28,9 C 4,8 km/h (1 Bft)
17.07.2013 14:35 28,3 C 29 % 1017,9 hPa 0,0 l/m 3,7 km/h (1 Bft) W-NW 292 8,5 C 29,1 C 0,0 km/h (0 Bft)
17.07.2013 14:40 28,5 C 29 % 1017,7 hPa 0,0 l/m 3,7 km/h (1 Bft) W-NW 292 8,7 C 29,6 C 6,4 km/h (2 Bft)
17.07.2013 14:45 28,3 C 29 % 1017,7 hPa 0,0 l/m 3,1 km/h (1 Bft) O-SO 112 8,5 C 29,8 C 3,2 km/h (1 Bft)
17.07.2013 14:50 27,6 C 29 % 1017,7 hPa 0,0 l/m 3,2 km/h (1 Bft) S-SW 202 7,9 C 30,2 C 0,0 km/h (0 Bft)
17.07.2013 14:55 27,7 C 32 % 1017,7 hPa 0,0 l/m 4,2 km/h (1 Bft) W-NW 292 9,5 C 30,0 C 13,0 km/h (3 Bft)
17.07.2013 15:00 27,7 C 30 % 1017,4 hPa 0,0 l/m 4,7 km/h (1 Bft) S 180 8,5 C 29,8 C 7,1 km/h (2 Bft)
17.07.2013 15:05 27,8 C 30 % 1017,4 hPa 0,0 l/m 5,1 km/h (1 Bft) S-SW 202 8,6 C 29,5 C 5,3 km/h (1 Bft)
17.07.2013 15:10 28,0 C 30 % 1017,4 hPa 0,0 l/m 4,3 km/h (1 Bft) W-SW 247 8,8 C 29,6 C 0,0 km/h (0 Bft)
17.07.2013 15:15 28,6 C 29 % 1017,4 hPa 0,0 l/m 2,7 km/h (1 Bft) S 180 8,8 C 30,4 C 3,5 km/h (1 Bft)
17.07.2013 15:20 28,1 C 28 % 1017,4 hPa 0,0 l/m 2,4 km/h (1 Bft) N-NW 337 7,9 C 30,7 C 8,0 km/h (2 Bft)
17.07.2013 15:25 28,0 C 30 % 1017,4 hPa 0,0 l/m 3,7 km/h (1 Bft) S-SO 157 8,8 C 30,6 C 7,6 km/h (2 Bft)
17.07.2013 15:30 28,2 C 30 % 1017,4 hPa 0,0 l/m 4,7 km/h (1 Bft) S-SW 202 9,0 C 30,2 C 3,4 km/h (1 Bft)
17.07.2013 15:35 28,4 C 30 % 1017,4 hPa 0,0 l/m 2,7 km/h (1 Bft) W-SW 247 9,1 C 30,7 C 0,0 km/h (0 Bft)
17.07.2013 15:40 28,8 C 29 % 1017,3 hPa 0,0 l/m 2,1 km/h (1 Bft) W-NW 292 9,0 C 31,4 C 8,2 km/h (2 Bft)
17.07.2013 15:45 28,5 C 30 % 1017,3 hPa 0,0 l/m 3,9 km/h (1 Bft) W 270 9,2 C 31,0 C 4,0 km/h (1 Bft)
17.07.2013 15:50 28,2 C 29 % 1017,3 hPa 0,0 l/m 4,2 km/h (1 Bft) W-NW 292 8,5 C 31,1 C 5,5 km/h (1 Bft)
17.07.2013 15:55 28,1 C 29 % 1017,3 hPa 0,0 l/m 3,7 km/h (1 Bft) W-NW 292 8,4 C 31,2 C 6,9 km/h (2 Bft)
17.07.2013 16:00 27,4 C 29 % 1017,1 hPa 0,0 l/m 4,0 km/h (1 Bft) W 270 7,8 C 31,0 C 3,1 km/h (1 Bft)
17.07.2013 16:05 28,1 C 29 % 1017,1 hPa 0,0 l/m 4,2 km/h (1 Bft) W-NW 292 8,4 C 31,0 C 6,8 km/h (2 Bft)
17.07.2013 16:10 28,5 C 30 % 1017,1 hPa 0,0 l/m 4,3 km/h (1 Bft) W 270 9,2 C 30,7 C 4,7 km/h (1 Bft)
17.07.2013 16:15 28,3 C 30 % 1017,1 hPa 0,0 l/m 4,7 km/h (1 Bft) W-SW 247 9,0 C 30,6 C 2,3 km/h (1 Bft)
17.07.2013 16:20 28,2 C 29 % 1017,0 hPa 0,0 l/m 4,2 km/h (1 Bft) NO 45 8,5 C 30,8 C 2,9 km/h (1 Bft)
17.07.2013 16:25 27,4 C 29 % 1017,0 hPa 0,0 l/m 4,2 km/h (1 Bft) N-NW 337 7,8 C 31,1 C 8,4 km/h (2 Bft)
17.07.2013 16:30 27,2 C 29 % 1017,0 hPa 0,0 l/m 4,7 km/h (1 Bft) W 270 7,6 C 30,8 C 5,3 km/h (1 Bft)
17.07.2013 16:35 27,6 C 30 % 1017,0 hPa 0,0 l/m 4,2 km/h (1 Bft) W-NW 292 8,4 C 31,0 C 4,5 km/h (1 Bft)
17.07.2013 16:40 26,8 C 30 % 1017,0 hPa 0,0 l/m 4,0 km/h (1 Bft) N 360 7,8 C 31,0 C 5,6 km/h (1 Bft)
17.07.2013 16:45 26,4 C 30 % 1017,0 hPa 0,0 l/m 4,0 km/h (1 Bft) S-SO 157 7,4 C 31,0 C 5,8 km/h (2 Bft)
17.07.2013 16:50 26,3 C 30 % 1017,0 hPa 0,0 l/m 3,1 km/h (1 Bft) W-NW 292 7,3 C 31,5 C 5,0 km/h (1 Bft)
17.07.2013 16:55 26,1 C 30 % 1017,0 hPa 0,0 l/m 2,7 km/h (1 Bft) N-NW 337 7,2 C 31,8 C 5,8 km/h (2 Bft)
17.07.2013 17:00 25,7 C 30 % 1017,1 hPa 0,0 l/m 3,2 km/h (1 Bft) W 270 6,8 C 31,8 C 3,9 km/h (1 Bft)
17.07.2013 17:05 25,7 C 31 % 1017,1 hPa 0,0 l/m 3,9 km/h (1 Bft) W-NW 292 7,3 C 31,5 C 4,0 km/h (1 Bft)
17.07.2013 17:10 25,7 C 30 % 1017,1 hPa 0,0 l/m 3,5 km/h (1 Bft) W 270 6,8 C 31,7 C 3,5 km/h (1 Bft)
17.07.2013 17:15 25,4 C 31 % 1017,1 hPa 0,0 l/m 3,2 km/h (1 Bft) W 270 7,0 C 31,7 C 4,2 km/h (1 Bft)
17.07.2013 17:20 25,4 C 31 % 1017,4 hPa 0,0 l/m 4,0 km/h (1 Bft) W-SW 247 7,0 C 31,5 C 8,0 km/h (2 Bft)
17.07.2013 17:25 25,3 C 33 % 1017,4 hPa 0,0 l/m 4,7 km/h (1 Bft) W-SW 247 7,9 C 31,4 C 8,5 km/h (2 Bft)
17.07.2013 17:30 25,4 C 32 % 1017,4 hPa 0,0 l/m 5,0 km/h (1 Bft) W-NW 292 7,5 C 31,1 C 7,1 km/h (2 Bft)
17.07.2013 17:35 25,3 C 33 % 1017,4 hPa 0,0 l/m 4,5 km/h (1 Bft) W-NW 292 7,9 C 31,0 C 5,5 km/h (1 Bft)
17.07.2013 17:40 25,2 C 33 % 1018,0 hPa 0,0 l/m 4,2 km/h (1 Bft) W 270 7,8 C 31,1 C 4,7 km/h (1 Bft)
17.07.2013 17:45 25,2 C 33 % 1018,0 hPa 0,0 l/m 5,3 km/h (1 Bft) W-NW 292 7,8 C 30,7 C 6,4 km/h (2 Bft)
17.07.2013 17:50 25,2 C 33 % 1018,0 hPa 0,0 l/m 5,3 km/h (1 Bft) W-SW 247 7,8 C 30,7 C 7,4 km/h (2 Bft)
17.07.2013 17:55 25,1 C 33 % 1018,0 hPa 0,0 l/m 4,8 km/h (1 Bft) W-NW 292 7,7 C 30,6 C 5,3 km/h (1 Bft)
17.07.2013 18:00 25,1 C 33 % 1018,1 hPa 0,0 l/m 4,0 km/h (1 Bft) NO 45 7,7 C 30,8 C 4,0 km/h (1 Bft)
17.07.2013 18:05 24,9 C 33 % 1018,1 hPa 0,0 l/m 3,5 km/h (1 Bft) NW 315 7,5 C 31,0 C 6,1 km/h (2 Bft)
17.07.2013 18:10 25,1 C 34 % 1018,1 hPa 0,0 l/m 4,8 km/h (1 Bft) W 270 8,1 C 30,6 C 6,1 km/h (2 Bft)
17.07.2013 18:15 25,2 C 34 % 1018,1 hPa 0,0 l/m 4,5 km/h (1 Bft) W-NW 292 8,2 C 30,8 C 13,4 km/h (3 Bft)
17.07.2013 18:20 25,1 C 33 % 1018,2 hPa 0,0 l/m 3,7 km/h (1 Bft) W 270 7,7 C 30,9 C 6,8 km/h (2 Bft)
17.07.2013 18:25 25,2 C 32 % 1018,2 hPa 0,0 l/m 4,5 km/h (1 Bft) W-NW 292 7,3 C 30,3 C 8,5 km/h (2 Bft)
17.07.2013 18:30 25,1 C 32 % 1018,2 hPa 0,0 l/m 5,1 km/h (1 Bft) W-SW 247 7,2 C 30,3 C 7,7 km/h (2 Bft)
17.07.2013 18:35 24,9 C 33 % 1018,2 hPa 0,0 l/m 4,2 km/h (1 Bft) W-NW 292 7,5 C 30,3 C 4,2 km/h (1 Bft)
17.07.2013 18:40 25,0 C 34 % 1018,1 hPa 0,0 l/m 3,4 km/h (1 Bft) W-NW 292 8,0 C 30,3 C 4,3 km/h (1 Bft)
17.07.2013 18:45 24,7 C 34 % 1018,1 hPa 0,0 l/m 3,5 km/h (1 Bft) NW 315 7,8 C 30,3 C 5,1 km/h (1 Bft)
17.07.2013 18:50 25,0 C 33 % 1018,1 hPa 0,0 l/m 4,3 km/h (1 Bft) SW 225 7,6 C 30,0 C 4,7 km/h (1 Bft)
17.07.2013 18:55 24,8 C 34 % 1018,1 hPa 0,0 l/m 4,3 km/h (1 Bft) W-NW 292 7,9 C 29,8 C 3,7 km/h (1 Bft)
17.07.2013 19:00 24,6 C 35 % 1023,7 hPa 0,0 l/m 4,3 km/h (1 Bft) W-NW 292 8,1 C 29,5 C 2,9 km/h (1 Bft)
17.07.2013 19:05 24,4 C 36 % 1023,7 hPa 0,0 l/m 3,2 km/h (1 Bft) NW 315 8,4 C 29,7 C 5,3 km/h (1 Bft)
17.07.2013 19:10 24,3 C 36 % 1023,7 hPa 0,0 l/m 3,5 km/h (1 Bft) W-NW 292 8,3 C 29,5 C 4,8 km/h (1 Bft)
17.07.2013 19:15 24,1 C 36 % 1023,7 hPa 0,0 l/m 3,7 km/h (1 Bft) NO 45 8,1 C 29,5 C 4,3 km/h (1 Bft)
17.07.2013 19:20 24,1 C 37 % 1023,7 hPa 0,0 l/m 3,9 km/h (1 Bft) W-NW 292 8,5 C 29,2 C 4,5 km/h (1 Bft)
17.07.2013 19:25 23,8 C 37 % 1023,7 hPa 0,0 l/m 4,7 km/h (1 Bft) W-NW 292 8,2 C 28,8 C 3,9 km/h (1 Bft)
17.07.2013 19:30 23,7 C 38 % 1023,7 hPa 0,0 l/m 4,2 km/h (1 Bft) N-NO 22 8,5 C 28,6 C 3,5 km/h (1 Bft)
17.07.2013 19:35 23,6 C 38 % 1023,7 hPa 0,0 l/m 3,1 km/h (1 Bft) O-SO 112 8,4 C 28,4 C 4,3 km/h (1 Bft)
17.07.2013 19:40 23,6 C 37 % 1023,7 hPa 0,0 l/m 3,2 km/h (1 Bft) W 270 8,0 C 28,4 C 5,8 km/h (2 Bft)
17.07.2013 19:45 23,4 C 38 % 1023,7 hPa 0,0 l/m 3,4 km/h (1 Bft) W-NW 292 8,3 C 28,0 C 3,5 km/h (1 Bft)
17.07.2013 19:50 23,4 C 38 % 1023,7 hPa 0,0 l/m 4,0 km/h (1 Bft) W 270 8,3 C 27,7 C 5,1 km/h (1 Bft)
17.07.2013 19:55 23,2 C 39 % 1023,7 hPa 0,0 l/m 3,9 km/h (1 Bft) N-NO 22 8,5 C 27,4 C 2,6 km/h (1 Bft)
17.07.2013 20:00 23,0 C 39 % 1023,9 hPa 0,0 l/m 2,9 km/h (1 Bft) O-SO 112 8,3 C 27,2 C 2,6 km/h (1 Bft)
17.07.2013 20:05 22,8 C 41 % 1023,9 hPa 0,0 l/m 2,9 km/h (1 Bft) N-NW 337 8,9 C 26,8 C 4,5 km/h (1 Bft)
17.07.2013 20:10 22,8 C 40 % 1023,9 hPa 0,0 l/m 3,1 km/h (1 Bft) O 90 8,5 C 26,5 C 0,0 km/h (0 Bft)
17.07.2013 20:15 22,4 C 41 % 1023,9 hPa 0,0 l/m 2,1 km/h (1 Bft) NO 45 8,5 C 26,2 C 2,9 km/h (1 Bft)
17.07.2013 20:20 22,3 C 42 % 1024,3 hPa 0,0 l/m 0,8 km/h (0 Bft) N-NO 22 8,8 C 26,0 C 0,0 km/h (0 Bft)
17.07.2013 20:25 21,8 C 44 % 1024,3 hPa 0,0 l/m 0,6 km/h (0 Bft) O-NO 67 9,0 C 25,6 C 0,0 km/h (0 Bft)
17.07.2013 20:30 21,8 C 44 % 1024,3 hPa 0,0 l/m 0,5 km/h (0 Bft) N-NO 22 9,0 C 25,4 C 0,0 km/h (0 Bft)
17.07.2013 20:35 21,5 C 44 % 1024,3 hPa 0,0 l/m 0,3 km/h (0 Bft) O 90 8,7 C 24,9 C 0,0 km/h (0 Bft)
17.07.2013 20:40 21,4 C 44 % 1024,5 hPa 0,0 l/m 0,3 km/h (0 Bft) O 90 8,6 C 24,2 C 0,0 km/h (0 Bft)
17.07.2013 20:45 21,0 C 45 % 1024,5 hPa 0,0 l/m 0,6 km/h (0 Bft) O-SO 112 8,6 C 23,1 C 0,0 km/h (0 Bft)
17.07.2013 20:50 20,6 C 47 % 1024,5 hPa 0,0 l/m 0,6 km/h (0 Bft) O 90 8,9 C 22,2 C 1,8 km/h (1 Bft)
17.07.2013 20:55 20,1 C 49 % 1024,5 hPa 0,0 l/m 1,4 km/h (1 Bft) O-NO 67 9,0 C 21,0 C 2,4 km/h (1 Bft)
17.07.2013 21:00 19,8 C 50 % 1024,7 hPa 0,0 l/m 2,4 km/h (1 Bft) NO 45 9,1 C 20,3 C 4,2 km/h (1 Bft)
17.07.2013 21:05 19,4 C 51 % 1024,7 hPa 0,0 l/m 2,9 km/h (1 Bft) O 90 9,0 C 19,6 C 2,6 km/h (1 Bft)
17.07.2013 21:10 19,2 C 53 % 1024,7 hPa 0,0 l/m 2,9 km/h (1 Bft) O 90 9,4 C 19,1 C 3,1 km/h (1 Bft)
17.07.2013 21:15 19,0 C 54 % 1024,7 hPa 0,0 l/m 3,1 km/h (1 Bft) NO 45 9,5 C 18,6 C 3,4 km/h (1 Bft)
17.07.2013 21:20 18,7 C 55 % 1024,9 hPa 0,0 l/m 3,2 km/h (1 Bft) O 90 9,5 C 18,4 C 2,1 km/h (1 Bft)
17.07.2013 21:25 18,2 C 56 % 1024,9 hPa 0,0 l/m 2,4 km/h (1 Bft) O 90 9,3 C 17,9 C 3,7 km/h (1 Bft)
17.07.2013 21:30 18,4 C 56 % 1024,9 hPa 0,0 l/m 2,4 km/h (1 Bft) O 90 9,5 C 17,8 C 2,6 km/h (1 Bft)
17.07.2013 21:35 17,6 C 58 % 1024,9 hPa 0,0 l/m 1,6 km/h (1 Bft) O-SO 112 9,2 C 17,3 C 0,0 km/h (0 Bft)
17.07.2013 21:40 17,2 C 59 % 1025,0 hPa 0,0 l/m 0,3 km/h (0 Bft) O 90 9,1 C 17,1 C 0,0 km/h (0 Bft)
17.07.2013 21:45 17,2 C 60 % 1025,0 hPa 0,0 l/m 0,3 km/h (0 Bft) O-NO 67 9,4 C 16,8 C 1,6 km/h (1 Bft)
17.07.2013 21:50 17,2 C 60 % 1025,0 hPa 0,0 l/m 0,6 km/h (0 Bft) O 90 9,4 C 16,7 C 1,6 km/h (1 Bft)
17.07.2013 21:55 17,3 C 61 % 1025,0 hPa 0,0 l/m 1,0 km/h (0 Bft) NO 45 9,7 C 16,7 C 1,9 km/h (1 Bft)
17.07.2013 22:00 17,4 C 61 % 1025,1 hPa 0,0 l/m 1,0 km/h (0 Bft) O-SO 112 9,8 C 16,6 C 2,6 km/h (1 Bft)
17.07.2013 22:05 16,9 C 63 % 1025,1 hPa 0,0 l/m 0,6 km/h (0 Bft) NO 45 9,8 C 16,5 C 0,0 km/h (0 Bft)
17.07.2013 22:10 16,8 C 65 % 1025,1 hPa 0,0 l/m 0,5 km/h (0 Bft) NO 45 10,2 C 16,5 C 0,0 km/h (0 Bft)
17.07.2013 22:15 16,6 C 65 % 1025,1 hPa 0,0 l/m 0,3 km/h (0 Bft) NO 45 10,0 C 16,3 C 0,0 km/h (0 Bft)
17.07.2013 22:20 16,5 C 65 % 1024,9 hPa 0,0 l/m 0,2 km/h (0 Bft) NO 45 9,9 C 16,3 C 0,0 km/h (0 Bft)
17.07.2013 22:25 16,5 C 65 % 1024,9 hPa 0,0 l/m 0,2 km/h (0 Bft) NO 45 9,9 C 16,2 C 0,0 km/h (0 Bft)
17.07.2013 22:30 16,4 C 65 % 1024,9 hPa 0,0 l/m 0,0 km/h (0 Bft) NO 45 9,8 C 16,1 C 0,0 km/h (0 Bft)
17.07.2013 22:35 16,3 C 68 % 1024,9 hPa 0,0 l/m 0,0 km/h (0 Bft) O 90 10,4 C 15,9 C 0,0 km/h (0 Bft)
17.07.2013 22:40 16,5 C 67 % 1025,0 hPa 0,0 l/m 0,3 km/h (0 Bft) O 90 10,4 C 15,9 C 2,1 km/h (1 Bft)
17.07.2013 22:45 16,6 C 66 % 1025,0 hPa 0,0 l/m 1,6 km/h (1 Bft) O 90 10,2 C 15,9 C 3,4 km/h (1 Bft)
17.07.2013 22:50 16,3 C 67 % 1025,0 hPa 0,0 l/m 2,6 km/h (1 Bft) O 90 10,2 C 15,9 C 3,1 km/h (1 Bft)
17.07.2013 22:55 16,3 C 68 % 1025,0 hPa 0,0 l/m 2,9 km/h (1 Bft) O-SO 112 10,4 C 15,8 C 3,4 km/h (1 Bft)
17.07.2013 23:00 16,3 C 67 % 1024,9 hPa 0,0 l/m 2,4 km/h (1 Bft) O-NO 67 10,2 C 15,7 C 0,0 km/h (0 Bft)
17.07.2013 23:05 15,9 C 69 % 1024,9 hPa 0,0 l/m 1,4 km/h (1 Bft) O 90 10,2 C 15,5 C 0,0 km/h (0 Bft)
17.07.2013 23:10 15,8 C 69 % 1024,9 hPa 0,0 l/m 1,6 km/h (1 Bft) O-SO 112 10,1 C 15,5 C 3,5 km/h (1 Bft)
17.07.2013 23:15 15,8 C 70 % 1024,9 hPa 0,0 l/m 1,9 km/h (1 Bft) O 90 10,3 C 15,3 C 2,9 km/h (1 Bft)
17.07.2013 23:20 15,7 C 70 % 1024,9 hPa 0,0 l/m 1,9 km/h (1 Bft) O 90 10,2 C 15,3 C 0,0 km/h (0 Bft)
17.07.2013 23:25 15,5 C 70 % 1024,9 hPa 0,0 l/m 1,1 km/h (1 Bft) NO 45 10,1 C 15,1 C 2,7 km/h (1 Bft)
17.07.2013 23:30 15,8 C 70 % 1024,9 hPa 0,0 l/m 0,5 km/h (0 Bft) NO 45 10,3 C 15,1 C 0,0 km/h (0 Bft)
17.07.2013 23:35 15,0 C 70 % 1024,9 hPa 0,0 l/m 0,5 km/h (0 Bft) NO 45 9,6 C 14,8 C 0,0 km/h (0 Bft)
17.07.2013 23:40 14,9 C 70 % 1024,9 hPa 0,0 l/m 0,0 km/h (0 Bft) NO 45 9,5 C 14,6 C 0,0 km/h (0 Bft)
17.07.2013 23:45 14,9 C 71 % 1024,9 hPa 0,0 l/m 0,0 km/h (0 Bft) NO 45 9,7 C 14,4 C 0,0 km/h (0 Bft)
17.07.2013 23:50 15,0 C 73 % 1024,9 hPa 0,0 l/m 0,8 km/h (0 Bft) O-NO 67 10,2 C 14,3 C 2,7 km/h (1 Bft)
17.07.2013 23:55 15,6 C 71 % 1024,9 hPa 0,0 l/m 3,1 km/h (1 Bft) O 90 10,4 C 14,7 C 5,1 km/h (1 Bft)
_ Min-Zeit 05:25 15:20 16:55 - 23:45 - - 04:10 05:30 23:45
Minimum _ 8,8 C 28 % 1017,0 hPa - 0,0 km/h (0 Bft) - - 6,5 C 8,2 C 0,0 km/h (0 Bft)
_ Max-Zeit 15:40 06:10 22:15 23:55 14:25 - - 08:50 17:00 18:15
Maximum _ 28,8 C 87 % 1025,1 hPa 0,0 l/m 5,6 km/h
S-SO (1 Bft)
- - 14,2 C 31,8 C 13,4 km/h
W-NW (3 Bft)
Durchschnitt _ 20,2 C 53 % 1022,4 hPa #0,0 l/m 1,9 km/h (1 Bft) W-NW - 9,0 C 21,5 C 2,5 km/h (1 Bft)